Location: Remedello Sotto
(45.2500°N, 10.3667°E)
Time: 10:54:01
(UTC+00:00)

Cosmos 1633 - Pass Details

Date: 03 February 2023
Orbit: 425 x 433 km, 82.5° (Epoch: 21 March)

Event Time Altitude Azimuth Distance (km) Brightness Sun altitude
Rises 16:12:38 0° 101° (ESE) 2,387 5.6 1.7°
Enters shadow 16:17:52 -2° 45° (NE) 2,624 5.7 0.8°
Exits shadow 16:33:54 -36° 359° (N) 8,154 8.6 -1.8°
Reaches altitude 10° 17:44:37 10° 174° (S) 1,517 5.1 -13.7°
Maximum altitude 17:47:51 55° 96° (E) 521 2.3 -14.3°
Drops below altitude 10° 17:51:06 10° 17° (NNE) 1,528 4.8 -14.8°
